www.pogodaiklimat.ru

Погода и климат >> Архив погоды >> Канада >> Нунавут >> Кеймбридж-Бей


ПОГОДА в Кеймбридж-Бее

  • Прогноз погоды в Кеймбридж-Бее
  • Монитор погоды в Кеймбридж-Бее

АРХИВ ПОГОДЫ в Кеймбридж-Бее

Время (UTC), дата Ветер
(напр.,м/с)
 
Видим.   Явления Облачность Т
(С)
Тd
(С)
f
(%)
Тe
(С)
Тes
(С)
Комфортность P
(гПа)
Po
(гПа)
Тmin
(С)
Tmax
(С)
R
(мм)
R24
(мм)
S
(см)
06 10.07 СВ 5 н/о н/о +7.3 +7.1 99 +3 +3 1008.2 1005.6 +5.6 +10.6 0.9 7
09 10.07 СВ 5 н/о н/о +6.7 +6.6 99 +2 +2 1007.8 1005.2 4
12 10.07 СВ 4 н/о н/о +7.1 +6.9 99 +3 +3 1007.3 1004.7 +6.5 +10.6 4
15 10.07 С 3 н/о н/о +7.8 +7.1 95 +5 +5 1006.4 1003.8
18 10.07 С 2 н/о н/о +9.3 +6.7 84 +8 +8 1005.4 1002.8 +6.5 +9.5
21 10.07 С 5 н/о н/о +9.8 +6.4 79 +7 +7 1004.6 1002.0 0.2
00 11.07 З 5 н/о н/о +8.0 +7.1 94 +4 +4 1003.4 1000.8 +6.5 +10.8 0.2
03 11.07 СЗ 5 н/о н/о +9.4 +7.9 90 +6 +6 1002.2 999.6
06 11.07 З 3 н/о н/о +7.8 +6.8 93 +5 +5 1001.1 998.5 +6.3 +10.8
09 11.07 З 4 н/о н/о +5.6 +5.1 97 +2 +2 999.9 997.3
12 11.07 З 3 н/о н/о +5.8 +5.4 97 +2 +2 998.7 996.1 +4.7 +10.8
15 11.07 З 4 н/о н/о +7.1 +5.9 92 +3 +3 997.1 994.5
18 11.07 З 5 н/о н/о +9.0 +7.1 88 +6 +6 996.2 993.6 +4.6 +9.0
21 11.07 СЗ 6 н/о н/о +9.1 +4.7 74 +5 +5 995.8 993.2
00 12.07 З 5 н/о н/о +8.7 +6.2 84 +5 +5 995.2 992.6 +4.6 +12.2
03 12.07 З 5 н/о н/о +6.3 +5.7 96 +2 +2 994.5 991.9
06 12.07 С 5 н/о {осадки} н/о +7.2 +6.6 96 +3 +3 994.2 991.6 +4.6 +12.2 0.2 21
09 12.07 СЗ 4 н/о н/о +7.1 +6.7 97 +4 +4 994.2 991.6 0.5
12 12.07 СЗ 4 н/о {осадки} н/о +6.9 +6.6 98 +3 +3 994.1 991.5 +5.4 +12.2 0.5
15 12.07 С 5 н/о н/о +8.4 +6.5 88 +5 +5 994.4 991.8
18 12.07 С 7 н/о {осадки} н/о +9.2 +7.1 87 +5 +5 994.7 992.1 +5.4 +9.5 1
21 12.07 СЗ 8 н/о {осадки} н/о +9.8 +7.7 87 +6 +6 995.3 992.7 0.8
00 13.07 СЗ 7 н/о {осадки} н/о +10.2 +7.3 82 +6 +6 995.7 993.1 +6.7 +10.7 0.8
03 13.07 С 8 н/о н/о +8.8 +7.0 88 +4 +4 996.4 993.8
06 13.07 СЗ 6 н/о н/о +7.4 +6.3 93 +3 +3 996.7 994.1 +6.7 +10.7 23
09 13.07 СЗ 7 н/о {осадки} н/о +6.6 +6.2 97 +2 +2 996.6 994.0 0.3
12 13.07 СЗ 6 н/о {осадки} н/о +6.6 +6.1 97 +2 +2 996.9 994.3 +6.3 +10.7 0.5
15 13.07 С 7 н/о {осадки} н/о +7.2 +6.5 95 +2 +2 997.6 995.0 0.2
18 13.07 С 7 н/о {осадки} н/о +8.0 +6.5 90 +4 +4 998.5 995.9 +6.3 +8.3 0.2
21 13.07 н/о н/о +9.4 +6.9 84 999.6 997.0
00 14.07 н/о н/о +9.8 +7.4 85 1000.3 997.7 +6.3 +10.4
03 14.07 н/о н/о +8.8 +7.2 90 1001.4 998.8
06 14.07 СЗ 4 н/о н/о +8.3 +7.0 92 +5 +5 1002.1 999.5 +6.3 +10.4 9
09 14.07 З 3 н/о н/о +6.4 +5.4 93 +3 +3 1002.8 1000.2
12 14.07 СЗ 4 н/о н/о +7.8 +6.8 93 +4 +4 1003.3 1000.7 +5.7 +10.4
15 14.07 З 5 н/о н/о +8.1 +6.6 90 +4 +4 1003.7 1001.1
18 14.07 З 5 н/о н/о +7.2 +6.1 93 +3 +3 1003.7 1001.1 +5.4 +8.6
21 14.07 ЮЗ 5 н/о н/о +5.9 +4.0 88 +2 +2 1003.8 1001.2
00 15.07 З 8 н/о н/о +6.2 +3.9 85 +1 +1 1003.5 1000.9 +4.7 +8.6
03 15.07 ЮЗ 3 н/о н/о +4.1 +3.2 94 0 0 1003.1 1000.5
06 15.07 З 4 н/о н/о +3.2 +3.0 99 -2 -2 1002.5 999.9 +3.2 +8.6 0
09 15.07 З 5 н/о н/о +3.3 +3.2 99 -2 -2 1002.1 999.5 2
12 15.07 З 5 н/о {осадки} н/о +2.8 +2.7 99 -3 -3 1002.0 999.4 +2.8 +8.6 2
15 15.07 З 4 н/о н/о +5.2 +4.6 96 +1 +1 1001.9 999.3
18 15.07 С 6 н/о н/о +9.7 +5.6 76 +6 +6 1002.2 999.6 +2.8 +10.8
21 15.07 СЗ 5 н/о н/о +10.9 +4.9 66 +8 +8 1002.9 1000.3
00 16.07 СЗ 5 н/о н/о +11.3 +5.4 67 +9 +9 1003.2 1000.6 +2.8 +11.7
03 16.07 З 3 н/о н/о +9.0 +5.4 78 +7 +7 1003.6 1001.0
06 16.07 ЮЗ 3 н/о н/о +5.4 +3.9 90 +2 +2 1002.5 999.9 +2.8 +11.7 22
09 16.07 Ю 3 н/о {осадки} н/о +5.4 +4.9 97 +2 +2 1001.4 998.8 2
12 16.07 Ю 6 н/о {осадки} н/о +6.3 +6.0 98 +2 +2 999.3 996.7 +4.9 +11.7 4
15 16.07 Ю 7 н/о {осадки} н/о +6.9 +6.8 99 +2 +2 996.7 994.1 5
18 16.07 ЮЗ 3 н/о {осадки} н/о +5.9 +5.9 100 +2 +2 995.3 992.7 +4.9 +7.3 12
21 16.07 СЗ 9 н/о н/о +9.0 +8.1 94 +4 +4 995.8 993.2 0.7
00 17.07 СЗ 8 н/о н/о +9.1 +4.8 74 +5 +5 996.9 994.3 +4.9 +11.1 0.7
03 17.07 З 5 н/о н/о +7.2 +4.7 84 +3 +3 997.3 994.7

 

Местоположение метеостанции Кеймбридж-Бей (Нунавут, Канада): широта 69.10 долгота -105.10 высота над уровнем моря 19 м.

В архиве по умолчанию представлена погода в Кеймбридж-Бее за последнюю неделю. Архивные данные за месяц целиком и за предыдущие месяцы, начиная с января 2011 года, Вы можете получить, выбрав интересующий диапазон дат из раскрывающегося списка и нажав кнопку "Ввод!".


*Определитесь, кто Вы:
робот инопланетянин человек

Внимание! Время в таблицах - всемирное. Для получения местного времени необходимо прибавить поправку, которая равна -7 ч.

Смотрите также архив погоды в соседних городах и на ближайших метеорологических станциях:

Погода на Мысе Пил-Вест (Нунавут, Канада) (108 км)
Погода на Острове Хат (Нунавут, Канада) (223 км)
Погода в Джойа Хейвен (Нунавут, Канада) (374 км)
Погода в Куглуктуке (Нунавут, Канада) (432 км)
Погода в Куглуктуке (Северо-Западные территории, Канада) (432 км)
Погода в Люпине (Нунавут, Канада) (452 км)
Погода в Саскатуне (Саскачеван, Канада) (452 км)
Погода в Талойоаке (Нунавут, Канада) (454 км)
Погода на Озере Робертсон (Нунавут, Канада) (460 км)
Погода в Шеперд-Бее (Нунавут, Канада) (466 км)

Пояснения к столбцам:

Ветер - указаны скорость ветра в м/с - средняя за 10 мин, порывы в срок и между сроками (в фигурных скобках) и направление, откуда дует ветер: С - северный, СВ - северо-восточный, В - восточный, ЮВ - юго-восточный, Ю - южный, ЮЗ - юго-западный, З - западный, СЗ - северо-западный.
Видимость - горизонтальная дальность видимости в метрах или километрах. При видимости от 1 до 10 км при отсутствии осадков обычно наблюдается дымка, при ухудшении видимости до 1 км и менее - туман. В сухую погоду видимость может ухудшаться дымом, пылью или мглою.
Явления - указаны атмосферные явления, наблюдавшиеся в срок или в последний час перед сроком; фигурными скобками обозначены явления, наблюдавшиеся между сроками (за 1-3 часа до срока); квадратными скобками обозначены град или гололедные отложения с указанием их диаметра в мм.
Облачность - указаны через наклонную черту общая и нижняя облачность в баллах и высота нижней границы облаков в метрах; квадратными скобками обозначены формы облаков: Ci - перистые, Cs - перисто-слоистые, Cc - перисто-кучевые, Ac - высококучевые, As - высокослоистые, Sc - слоисто-кучевые, Ns - слоисто-дождевые, Cu - кучевые, Cb - кучево-дождевые. Подробнее классификацию облаков см. в Атласе облаков (PDF).
T - Температура воздуха - температура, измеренная на высоте 2 м над землей.
Td - Температура точки росы - температура, при понижении до которой содержащийся в воздухе водяной пар достигнет насыщения.
f - Относительная влажность воздуха - влажноcть воздуха, измеренная на высоте 2 м над землей.
Te - Эффективная температура - температура, которую ощущает одетый по сезону человек в тени. Характеристика душности погоды. При расчете учитывается влияние влажности воздуха и скорости ветра на теплоощущения человека.
Tes - Эффективная температура на солнце - температура, которую ощущает человек, с поправкой на солнечный нагрев. Характеристика знойности погоды. Зависит от высоты солнца над горизонтом, облачности и скорости ветра. Ночью, в пасмурную погоду, а также при ветре 12 м/с и более поправка равна нулю.
P - Атмосферное давление - приведенное к уровню моря атмосферное давление.
Po - Атмосферное давление - измеренное на уровне метеостанции атмосферное давление.
Tmin - Минимальная температура - минимум температуры воздуха на высоте 2 м над землей.
Tmax - Максимальная температура - максимум температуры воздуха на высоте 2 м над землей.
R - Количество осадков - Количество выпавших осадков за период времени, мм. При наведении курсора мыши на число - период времени, за который выпало указанное количество осадков.
R24 - Количество осадков - Количество выпавших осадков за 24 часа, мм.
S - Снежный покров - Высота снежного покрова, см. При наведении курсора мыши на число - состояние снежного покрова и степень покрытия местности в баллах.